SCP
0 0 0 0 0 0 0 0 0 0 0 0 0 0 0 0 0 0 0 0 0 0 0 0 0 0 0 0 0 0 0 0 0 0 0 0 0 0
0 0 0 0 0 0 0 0 0 0 0 0 0 0 0 0 0 0 0 0 0 0 0 0 0 0 0 0 0 0 0 0 0 0 0 0 0 0
0 0 0 0 0 0 0 0 0 0 0 0 0 0 0 0 0 0 0 0 0 0 0 0 0 0 0 0 0 0 0 0 0 0 0 0 0 0
0 0 0 0 0 0 0 0 0 0 0 0 0 0 0 0 0 0 0 0 0 0 0 0 0 0 0 0 0 0 0 0 0 0 0 0 0 0
0 0 0 0 0 0 0 0 0 0 0 0 0 0 0 0 0 0 0 0 0 0 0 0 0 0 0 0 0 0 0 0 0 0 0 0 0 0
0 0 0 0 0 0 0 0 0 0 0 0 0 0 0 0 0 0 0 0 0 0 0 0 0 0 0 0 0 0 0 0 0 -0 0 0 0 0
0 0 0 0 0 0 0 0 0 0 0 0 0 0 0 0 0 0 0 0 0 0 0 0 0 0 0 0 0 0 0 0 0 0 0 0 0 0
0 0 0 0 0 0 0 0 0 0 0 0 0 0 0 0 0 0 0 0 0 0 0 0 0 0 0 0 0 0 0 0 0 0 0 0 0 0
0 0 0 0 0 0 0 0 0 0 0 0 0 0 0 0 0 0 0 0 0 0 0 0 0 0 0 0 0 0 0 0 0 0 0 0 0 0
0 0 0 0 0 0 0 0 0 0 0 0 0 0 0 0 0 0 0 0 0 0 0 0 0 0 0 0 0 0 0 0 0 0 0 0 0 0
0 0 0 0 0 0 0 0 0 0 0 0 0 0 0 0 0 0 0 0 0 0 0 0 0 0 0 0 0 0 0 0 0 0 0 0 0 0
0 0 0 0 0 0 0 0 0 0 0 0 0 0 0 0 0 0 0 0 0 0 0 0 0 0 0 0 0 0 0 0 0 0 0 0 0 0
0 0 0 0 0 0 0 0 0 0 0 0 0 0 0 0 0 0 0 0 0 0 0 0 0 0 0 0 0 0 0 0 0 0 0 0 0 0
0 0 0 0 0 0 0 0 0 0 0 0 0 0 0 0 0 0 0 0 0 0 0 0 0 0 0 0 0 0 0 0 0 0 0 0 0 0
0 0 0 0 0 0 0 0 0 0 0 0 0 0 0 0 0 0 0 0 0 0 0 0 0 0 0 0 0 0 0 0 0 0 0 0 0 0
0 0 0 0 0 0 0 0 0 0 0 0 0 0 0 0 0 0 0 0 0 0 0 0 0 0 0 0 0 0 0 0 0 0 0 0 0 0
0 0 0 0 0 0 0 0 0 0 0 0 0 0 0 0 0 0 0 0 0 0 0 0 0 0 0 0 0 0 0 0 0 0 0 0 0 0
0 0 0 0 0 0 0 0 0 0 0 0 0 0 0 0 0 0 0 0 0 0 0 0 0 0 0 0 0 0 0 0 0 0 0 0 0 0
0 0 0 0 0 0 0 0 0 0 0 0 0 0 0 0 0 0 0 0 0 0 0 0 0 0 0 0 0 0 0 0 0 0 0 0 0 0
0 0 0 0 0 0 0 0 0 0 0 0 0 0 0 0 0 0 0 0 0 0 0 0 0 0 0 0 0 0 0 0 0 0 0 0 0 0
0 0 0 0 0 0 0 0 0 0 0 0 0 0 0 0 0 0 0 0 0 0 0 0 0 0 0 0 0 0 0 0 0 0 0 0 0 0
0 0 0 0 0 0 0 0 0 0 0 0 0 0 0 0 0 0 0 0 0 0 0 0 0 0 0 0 0 0 0 0 0 0 0 0 0 0
0 0 0 0 0 0 0 0 0 0 0 0 0 0 0 0 0 0 0 0 0 0 0 0 0 0 0 0 0 0 0 0 0 0 0 0 0 0
Wind_Speed
3 3 2 2 2 2 2 2 2 2 2 2 1 1 1 2 2 1 2 4 4 3 2 2 2 3 3 3 3 3 3 3 3 3 3 5 6 7
2 2 2 2 2 2 2 2 2 2 2 1 1 0 1 1 2 1 2 4 4 4 4 3 2 3 3 4 4 4 4 4 4 4 4 5 6 7
4 3 3 3 2 2 2 2 2 2 2 2 1 0 0 1 1 1 2 3 3 5 5 4 4 4 4 4 4 5 5 5 5 4 4 4 5 6
4 4 4 3 3 3 2 3 2 2 1 2 1 1 1 1 2 2 2 3 3 6 6 6 5 5 5 4 4 4 4 4 4 4 4 4 5 6
4 4 4 4 4 3 3 3 2 2 1 1 2 1 1 1 2 2 2 1 2 5 7 6 6 6 6 5 5 5 5 4 4 4 4 4 5 5
3 3 4 3 4 4 4 3 2 2 2 1 2 1 1 2 2 2 2 2 2 3 4 6 7 7 7 6 6 6 6 5 5 4 4 4 4 4
3 3 3 2 3 3 3 3 3 2 2 2 2 2 2 2 2 2 2 2 2 2 2 3 4 4 5 6 6 6 6 6 6 5 5 5 5 4
3 3 2 1 2 3 3 3 3 3 3 2 2 2 2 2 2 2 1 1 2 2 3 2 3 4 4 4 8 9 9 8 7 7 6 6 5 5
3 3 3 3 3 3 3 4 4 5 5 3 3 3 2 2 1 2 1 1 1 2 2 2 2 3 4 5 11 11 11 10 9 9 8 7 7 7
3 3 2 2 4 5 4 3 2 2 3 4 3 3 2 2 1 2 2 2 1 2 2 2 2 2 3 3 10 12 12 11 10 10 9 9 8 7
3 3 3 2 4 6 4 3 3 3 3 3 3 3 4 4 3 1 2 1 2 2 2 2 2 2 2 3 6 12 12 12 11 11 11 10 9 8
2 0 2 3 3 5 4 4 4 3 3 2 3 5 5 6 6 4 3 2 1 2 2 2 1 1 1 2 4 5 7 9 11 12 12 12 11 6
3 1 0 2 3 4 4 3 4 4 4 3 3 3 3 3 4 5 4 3 2 2 2 2 1 1 1 2 3 5 6 6 6 7 11 13 13 10
3 3 1 3 5 6 4 5 6 5 3 3 3 3 2 3 3 4 4 4 4 4 3 3 2 2 2 2 2 3 5 6 6 6 7 10 12 14
3 6 7 8 8 6 7 8 6 4 3 3 3 3 3 3 2 2 3 4 4 5 5 5 4 3 3 3 2 2 3 4 5 6 6 6 7 7
4 6 9 10 7 7 6 5 4 4 3 2 2 3 2 2 2 3 3 3 3 4 5 6 6 5 4 4 3 3 3 3 4 5 5 6 6 7
5 5 5 4 4 4 4 4 4 3 4 3 3 3 3 3 3 3 3 3 3 3 3 4 5 5 6 4 3 4 4 4 4 4 4 5 5 6
3 5 5 5 5 4 3 3 3 3 3 3 3 3 3 3 3 3 3 3 4 4 4 4 3 3 3 4 6 5 4 4 4 4 4 5 5 5
4 5 6 6 5 4 3 2 3 3 3 3 3 3 3 3 3 3 3 4 4 4 4 4 4 4 4 4 5 8 6 4 4 4 4 5 5 5
5 6 6 5 4 3 3 2 3 3 2 3 3 3 3 3 3 3 3 4 4 4 4 3 4 4 5 4 4 4 9 7 5 5 5 4 4 5
5 5 5 4 4 3 3 3 3 3 3 3 3 3 3 3 4 4 4 5 5 4 4 4 5 7 5 3 3 4 5 10 10 6 5 4 4 4
6 5 4 4 4 4 3 3 3 3 3 3 3 3 3 3 4 4 4 4 4 5 5 4 4 4 4 5 6 5 5 5 8 12 11 9 5 5
5 5 4 4 4 3 3 4 4 3 3 3 3 3 3 3 3 4 4 4 4 4 4 3 3 4 4 5 5 5 6 6 5 5 6 11 15 15
Wind_Direction
313 319 318 313 305 303 295 280 273 279 278 274 293 105 111 116 141 179 154 161 177 178 170 185 194 192 182 170 178 180 149 133 137 150 160 178 183 184
315 321 325 315 311 309 309 300 275 265 273 284 307 56 94 107 150 154 144 160 178 179 169 160 149 145 147 146 152 150 137 137 141 146 157 175 183 181
330 331 325 317 316 311 312 309 301 273 262 282 321 325 91 122 154 213 184 183 170 170 168 162 152 139 136 144 149 148 144 149 155 159 165 170 172 173
334 331 323 320 325 318 308 295 292 285 255 259 276 283 269 203 193 213 222 199 166 168 173 171 164 153 150 149 155 156 156 159 164 169 175 178 176 176
337 338 334 335 329 323 306 298 293 296 271 239 253 260 251 225 207 223 232 203 185 167 172 175 173 169 168 166 166 169 167 165 164 166 169 168 168 170
335 335 337 343 336 326 312 313 308 299 281 256 249 254 237 225 211 209 222 209 204 177 174 169 174 178 181 181 178 175 174 173 173 172 168 165 166 172
333 338 342 352 345 325 321 329 324 308 287 261 247 239 236 219 221 216 215 200 197 193 173 172 170 177 188 193 188 180 178 178 177 176 174 171 170 173
324 322 302 275 302 285 283 289 290 290 290 281 266 249 245 239 235 228 216 200 207 198 185 194 176 179 181 179 184 182 185 186 184 183 184 184 184 188
311 307 316 359 351 335 304 275 270 260 255 261 266 270 266 255 235 242 242 244 240 226 181 202 189 188 188 179 178 185 190 192 193 193 195 196 197 199
305 317 325 5 5 346 323 319 311 292 257 242 252 265 273 288 268 240 229 230 262 250 186 200 205 196 182 168 183 188 194 197 200 201 201 202 204 206
318 346 351 35 8 350 333 324 321 304 272 236 231 245 252 257 255 246 219 216 244 240 204 191 199 192 187 184 190 194 198 201 203 205 206 207 208 209
317 51 44 17 357 351 335 325 322 320 315 274 246 244 240 236 230 225 218 221 246 238 201 186 203 186 208 193 178 186 205 215 214 214 213 213 209 208
325 330 36 332 330 323 309 295 289 298 299 283 264 248 236 227 214 210 208 209 218 242 221 182 210 221 209 201 193 192 194 200 203 217 221 220 214 206
320 334 348 296 299 297 282 273 285 295 282 277 265 252 241 232 222 208 199 206 213 228 235 215 232 226 227 225 221 197 198 200 196 201 205 209 216 219
303 315 309 288 283 277 258 263 271 266 263 266 266 254 239 231 217 209 205 210 225 235 232 224 228 230 228 231 227 213 208 212 204 204 202 199 200 202
287 293 287 278 272 276 279 258 233 237 243 255 262 263 260 231 217 208 208 209 220 233 236 230 228 226 234 242 232 229 221 216 210 208 205 207 205 206
326 300 283 274 262 256 252 245 231 228 235 240 249 257 252 239 229 214 208 216 226 231 230 231 228 220 224 226 237 237 230 229 214 207 207 218 220 212
311 286 287 286 280 274 269 255 239 228 235 233 234 245 246 244 241 228 212 221 233 237 231 223 217 228 242 247 224 234 239 233 227 219 215 221 233 226
265 268 273 277 274 271 270 271 269 251 236 243 240 241 245 246 238 233 229 232 238 241 239 221 208 212 229 245 247 224 221 230 229 229 226 223 229 228
245 258 264 269 272 271 269 270 271 267 247 242 238 237 244 250 247 240 238 239 244 247 244 227 212 213 221 231 238 238 219 218 224 230 236 235 235 239
265 260 260 265 274 270 260 251 258 265 265 264 257 252 245 243 249 248 245 240 237 239 240 235 229 224 226 229 245 243 233 223 220 219 223 234 242 242
269 272 271 270 269 267 259 251 246 257 268 258 255 255 251 248 253 258 259 254 242 240 240 238 227 220 219 227 239 241 240 238 234 235 238 230 221 227
275 278 277 272 267 259 262 267 264 250 251 268 270 264 257 256 254 256 257 261 261 259 254 247 241 232 237 238 242 245 244 239 232 226 239 239 236 241